Weather History for Miami, FL

Change the Weather History Date:

Sunday, June 9, 2013

  Actual Average Record
Temperature  
Mean Temperature 83 °F 82 °F  
Max Temperature 88 °F 89 °F 94 °F (1981)
Min Temperature 78 °F 76 °F 67 °F (1935)
Degree Days  
Heating Degree Days 0 0  
Month to date heating degree days 0 0  
Since 1 June heating degree days 0 0  
Since 1 July heating degree days 70 128  
Cooling Degree Days 18 17  
Month to date cooling degree days 151 153  
Year to date cooling degree days 1596 1509  
Since 1 June cooling degree days 151 153  
Growing Degree Days 34 (Base 50)    
Moisture  
Dew Point 74 °F    
Average Humidity 70    
Maximum Humidity 79    
Minimum Humidity 61    
Precipitation  
Precipitation 0.11 in 0.32 in 5.89 in (1997)
Month to date precipitation 3.64 2.64  
Year to date precipitation 23.01 17.99  
Snow  
Snow 0.00 in - - ()
Month to date snowfall 0.0  
Since 1 June snowfall 0.0  
Since 1 July snowfall 0.0  
Snow Depth 0.00 in    
Sea Level Pressure  
Sea Level Pressure 30.08 in    
Wind  
Wind Speed 13 mph (ESE)    
Max Wind Speed 23 mph    
Max Gust Speed 31 mph    
Visibility 10 miles    
Events Rain    
T = Trace of Precipitation, MM = Missing Value Source: NWS Daily Summary

Daily Weather History Graph

Daily Weather History Graph

Search for Another Location

Airport:

Trip Planner

Search our weather history database for the weather conditions in past years. The results will help you decide how hot, cold, wet, or windy it might be!

Date:

Astronomy

Jun. 09, 2013 Rise Set
Actual Time 6:29 AM EDT 8:12 PM EDT
Civil Twilight 6:03 AM EDT 8:38 PM EDT
Nautical Twilight 5:32 AM EDT 9:09 PM EDT
Astronomical Twilight 4:59 AM EDT 9:41 PM EDT
Moon 7:18 AM EDT (6/9) 9:04 PM EDT (6/9)
Length of Visible Light 14h 34m
Length of Day
13h 42m
New Moon, 1% of the Moon is Illuminated
Jun 9
New Moon
Jun 16
First Quarter
Jun 23
Full
Jun 30
Last Quarter
Jul 8
New

Hourly Weather History & Observations

Time (EDT) Temp. Heat Index Dew Point Humidity Pressure Visibility Wind Dir Wind Speed Gust Speed Precip Events Conditions
12:53 AM 81.0 °F 86.2 °F 73.9 °F 79% 30.11 in 10.0 mi East 10.4 mph - N/A   Scattered Clouds
1:53 AM 81.0 °F 86.2 °F 73.9 °F 79% 30.09 in 10.0 mi East 12.7 mph - N/A   Scattered Clouds
2:53 AM 81.0 °F 85.8 °F 73.0 °F 77% 30.07 in 10.0 mi ESE 13.8 mph - N/A   Scattered Clouds
3:53 AM 80.1 °F 84.2 °F 73.0 °F 79% 30.06 in 10.0 mi ESE 11.5 mph - N/A   Scattered Clouds
4:53 AM 81.0 °F 85.8 °F 73.0 °F 77% 30.06 in 10.0 mi ESE 12.7 mph - N/A   Scattered Clouds
5:53 AM 80.1 °F 84.2 °F 73.0 °F 79% 30.06 in 10.0 mi ESE 8.1 mph - N/A   Scattered Clouds
6:53 AM 80.1 °F 84.2 °F 73.0 °F 79% 30.06 in 10.0 mi ESE 11.5 mph - N/A   Mostly Cloudy
7:53 AM 82.0 °F 87.4 °F 73.0 °F 74% 30.07 in 10.0 mi ESE 11.5 mph - N/A   Mostly Cloudy
8:53 AM 82.9 °F 88.8 °F 73.0 °F 72% 30.09 in 10.0 mi SE 15.0 mph - N/A   Mostly Cloudy
9:53 AM 84.9 °F 91.4 °F 73.0 °F 67% 30.10 in 10.0 mi East 12.7 mph - N/A   Mostly Cloudy
10:53 AM 84.9 °F 90.7 °F 72.0 °F 65% 30.09 in 10.0 mi SE 13.8 mph - N/A   Mostly Cloudy
11:53 AM 86.0 °F 91.5 °F 71.1 °F 61% 30.10 in 10.0 mi ESE 17.3 mph - N/A   Mostly Cloudy
12:53 PM 87.1 °F 94.5 °F 73.0 °F 63% 30.10 in 10.0 mi ESE 17.3 mph - N/A   Mostly Cloudy
1:53 PM 80.1 °F 84.2 °F 73.0 °F 79% 30.09 in 4.0 mi East 11.5 mph 29.9 mph 0.11 in Rain Light Rain
2:53 PM 84.0 °F 92.6 °F 75.9 °F 76% 30.08 in 10.0 mi East 12.7 mph - 0.00 in   Mostly Cloudy
3:53 PM 86.0 °F 93.8 °F 73.9 °F 67% 30.06 in 10.0 mi East 12.7 mph - N/A   Mostly Cloudy
4:53 PM 86.0 °F 95.1 °F 75.0 °F 70% 30.06 in 10.0 mi East 15.0 mph 23.0 mph 0.00 in   Mostly Cloudy
5:53 PM 84.9 °F 93.3 °F 75.0 °F 72% 30.05 in 10.0 mi East 13.8 mph - 0.00 in   Mostly Cloudy
6:53 PM 84.0 °F 91.2 °F 73.9 °F 72% 30.04 in 10.0 mi East 12.7 mph - N/A   Mostly Cloudy
7:53 PM 82.0 °F 87.9 °F 73.9 °F 76% 30.05 in 10.0 mi East 13.8 mph - N/A   Mostly Cloudy
8:53 PM 82.0 °F 88.6 °F 75.0 °F 79% 30.07 in 10.0 mi East 10.4 mph - N/A   Mostly Cloudy
9:53 PM 82.0 °F 87.9 °F 73.9 °F 76% 30.09 in 10.0 mi East 10.4 mph - N/A   Scattered Clouds
10:53 PM 81.0 °F 86.2 °F 73.9 °F 79% 30.10 in 10.0 mi East 11.5 mph - N/A   Partly Cloudy
11:53 PM 81.0 °F 86.2 °F 73.9 °F 79% 30.11 in 10.0 mi ESE 15.0 mph 23.0 mph N/A   Scattered Clouds